Location: Florida Caverns State Park
(30.8073°N, 85.2161°W)
Time: 06:06:04
(UTC-04:00)

N. Korean satellite - Pass Details

Date: 30 March 2019
Orbit: 457 x 508 km, 97.2° (Epoch: 23 April)

Event Time Altitude Azimuth Distance (km) Brightness Sun altitude
Rises 06:48:27 0° 36° (NE) 2,563 11.0 -10.2°
Reaches altitude 10° 06:51:22 10° 62° (ENE) 1,689 10.7 -9.6°
Maximum altitude 06:53:19 14° 95° (E) 1,460 10.3 -9.2°
Drops below altitude 10° 06:55:17 10° 128° (SE) 1,696 10.0 -8.8°
Sets 06:58:13 0° 154° (SSE) 2,583 10.5 -8.2°
